[[{"header":{"parameterUnit":"m.s-1","parameterCategory":1,"la1":30.2991,"la2":30.254,"lo1":-89.0895,"lo2":-89.0444,"dy":0.0017,"dx":0.0017,"nx":28,"ny":28,"refTime":"2024-04-14T03:00:00:Z","depth":0,"parameterNumber":2,"parameterNumberName":"U-component_of_WINDS"},"data":[0,0,0,0,0,0,0,0,0,0,0,0,0,0,0,0,0,0,0,0,0,0,0,0,0,0,0,0,0,0,0,0,0,0,0,0,0,0,0,0,0,0,0,0,0,0,0,0,0,0,0,0,0,0,0,0,0,0,-0.6754,-0.6754,0,-0.6747,-0.6747,-0.6747,-0.6742,-0.6742,-0.6742,-0.6742,-0.6735,-0.6735,-0.6735,0,0,0,0,0,0,0,0,0,0,0,0,0,-0.6764,-0.6764,-0.6754,-0.6754,-0.6754,-0.6747,-0.6747,-0.6747,-0.6742,-0.6742,-0.6742,-0.6742,-0.6735,-0.6735,-0.6735,0,0,0,0,0,0,0,0,0,0,0,0,0,-0.6759,-0.6764,-0.6754,-0.675,-0.675,-0.6747,-0.6747,-0.6747,-0.6742,-0.6742,-0.6742,-0.6742,-0.6735,-0.6735,-0.6735,-0.6734,0,0,-0.6734,-0.6734,0,0,0,0,0,0,0,0,-0.6759,-0.6759,-0.6751,-0.6751,-0.675,-0.6745,-0.6748,-0.6743,-0.6742,-0.6745,-0.6742,-0.6742,-0.6738,-0.6738,-0.6737,-0.6734,-0.6734,-0.6734,-0.6734,-0.6734,-0.6734,0,0,0,0,0,0,0,-0.676,-0.6759,-0.6751,-0.6751,-0.675,-0.675,-0.6749,-0.6747,-0.6742,-0.6745,-0.6744,-0.6743,-0.6738,-0.6737,-0.6737,-0.6734,-0.6734,-0.6734,-0.6734,-0.6734,-0.6731,-0.6732,0,0,0,0,0,0,-0.676,-0.6759,-0.6751,-0.6751,-0.6755,-0.675,-0.6749,-0.6747,-0.6742,-0.6741,-0.6744,-0.6743,-0.6737,-0.6737,-0.6736,-0.6736,-0.6734,-0.6734,-0.6733,-0.6731,-0.6732,-0.6732,0,0,0,0,0,0,-0.6761,-0.676,-0.6752,-0.6755,-0.6754,-0.6749,-0.6747,-0.6747,-0.6745,-0.6741,-0.674,-0.6743,-0.6737,-0.6737,-0.6735,-0.6736,-0.6733,-0.6733,-0.6731,-0.6731,-0.6732,-0.6736,0,0,0,0,0,0,-0.6761,-0.676,-0.6759,-0.6755,-0.6754,-0.675,-0.6748,-0.6747,-0.6745,-0.6745,-0.6741,-0.674,-0.6737,-0.6735,-0.6735,-0.6736,-0.6733,-0.6731,-0.6731,-0.6732,-0.6736,-0.6736,-0.6737,0,0,0,0,0,-0.6761,-0.6761,-0.6759,-0.6758,-0.6753,-0.675,-0.675,-0.6746,-0.6745,-0.6745,-0.6742,-0.674,-0.6736,-0.6735,-0.6735,-0.6735,-0.6731,-0.6731,-0.6731,-0.6735,-0.6736,-0.6737,0,0,0,0,0,0,-0.6765,-0.676,-0.6758,-0.6756,-0.6754,-0.6749,-0.6749,-0.6747,-0.6745,-0.6744,-0.6741,-0.674,-0.6739,-0.6737,-0.6736,-0.6735,-0.6733,-0.6733,-0.6737,-0.6737,-0.6738,-0.6738,-0.6733,0,0,0,0,0,-0.6766,-0.6764,-0.676,-0.6758,-0.6757,-0.6753,-0.6752,-0.675,-0.6747,-0.6746,-0.6743,-0.6741,-0.6739,-0.6738,-0.6736,-0.6735,-0.6735,-0.6736,-0.6736,-0.6736,-0.6737,-0.6737,-0.6737,-0.6732,-0.6732,-0.6732,0,0,-0.6767,-0.6764,-0.6763,-0.6759,-0.6757,-0.6755,-0.6752,-0.6751,-0.675,-0.6746,-0.6744,-0.6742,-0.6739,-0.6738,-0.6738,-0.6737,-0.6738,-0.6737,-0.6737,-0.6737,-0.6737,-0.6738,-0.6738,-0.6732,-0.6732,-0.6732,0,0,-0.6769,-0.6766,-0.6765,-0.6763,-0.676,-0.6757,-0.6757,-0.6753,-0.6752,-0.675,-0.6748,-0.6746,-0.6743,-0.6742,-0.674,-0.6742,-0.674,-0.6742,-0.6744,-0.6744,-0.6745,-0.6745,-0.6746,-0.6747,-0.6742,-0.6742,-0.6742,0,-0.6771,-0.6768,-0.6765,-0.6764,-0.6762,-0.6759,-0.6758,-0.6756,-0.6752,-0.6752,-0.675,-0.6747,-0.6745,-0.6744,-0.6744,-0.6743,-0.6743,-0.6742,-0.6745,-0.6745,-0.6746,-0.6747,-0.6747,-0.6742,-0.6742,-0.6742,-0.6742,0,-0.6772,-0.677,-0.6769,-0.6766,-0.6765,-0.6763,-0.676,-0.6759,-0.6757,-0.6755,-0.6754,-0.6752,-0.6749,-0.6749,-0.6747,-0.6748,-0.6747,-0.6746,-0.6744,-0.6746,-0.6748,-0.6748,-0.6742,-0.6742,-0.6742,-0.6742,0,0,-0.6775,-0.677,-0.677,-0.6769,-0.6766,-0.6764,-0.6763,-0.6761,-0.6761,-0.6759,-0.6758,-0.6756,-0.6755,-0.6753,-0.6751,-0.6751,-0.6754,-0.675,-0.675,-0.6751,-0.6755,-0.6757,-0.6758,-0.6753,-0.6753,-0.6753,-0.6756,0,-0.6777,-0.6775,-0.6772,-0.6771,-0.677,-0.6767,-0.6766,-0.6764,-0.6762,-0.6761,-0.6759,-0.6758,-0.6756,-0.6755,-0.6755,-0.6753,-0.6755,-0.6753,-0.6753,-0.6753,-0.6754,-0.6758,-0.6759,-0.6763,-0.6756,-0.6756,-0.6756,0,-0.6778,-0.6776,-0.6775,-0.6772,-0.6772,-0.6771,-0.6769,-0.6768,-0.6766,-0.6765,-0.6764,-0.6762,-0.6761,-0.6759,-0.6759,-0.6758,-0.6758,-0.6757,-0.6757,-0.6757,-0.6755,-0.6758,-0.6763,-0.6764,-0.6757,-0.6757,-0.6757,0,-0.6781,-0.6778,-0.6778,-0.6777,-0.6773,-0.6773,-0.6772,-0.677,-0.6769,-0.6768,-0.6767,-0.6766,-0.6765,-0.6764,-0.6762,-0.6761,-0.6762,-0.676,-0.6761,-0.6761,-0.6762,-0.6762,-0.6767,-0.6761,-0.6761,-0.6761,-0.6761,0,-0.6783,-0.6783,-0.6779,-0.6779,-0.6778,-0.6776,-0.6776,-0.6774,-0.6772,-0.6772,-0.6769,-0.6769,-0.6766,-0.6766,-0.6764,-0.6764,-0.6764,-0.6763,-0.6763,-0.6764,-0.6764,-0.6763,-0.6763,-0.6761,-0.6761,-0.6761,-0.6761,0,-0.6786,-0.6784,-0.6783,-0.678,-0.678,-0.678,-0.6778,-0.6777,-0.6776,-0.6775,-0.6775,-0.6772,-0.6772,-0.677,-0.6768,-0.6767,-0.6768,-0.6767,-0.6769,-0.6769,-0.6771,-0.6771,-0.6776,-0.6777,-0.677,-0.677,-0.677,0,-0.6788,-0.6788,-0.6785,-0.6785,-0.6783,-0.6783,-0.6782,-0.678,-0.6779,-0.6777,-0.6777,-0.6777,-0.6776,-0.6775,-0.6773,-0.6773,-0.6772,-0.6774,-0.6772,-0.6773,-0.6772,-0.6773,-0.6773,-0.6774,-0.6774,-0.6775,-0.6775,0,-0.6791,-0.679,-0.6789,-0.6788,-0.6787,-0.6786,-0.6785,-0.6785,-0.6782,-0.6782,-0.6781,-0.6781,-0.678,-0.6779,-0.6778,-0.6777,-0.6776,-0.6775,-0.6776,-0.6777,-0.6778,-0.6778,-0.6771,-0.6775,-0.6775,-0.6775,-0.6775,-0.6775,-0.6794,-0.6794,-0.6792,-0.6791,-0.679,-0.679,-0.6789,-0.6788,-0.6787,-0.6787,-0.6785,-0.6785,-0.6784,-0.6783,-0.6782,-0.6782,-0.6781,-0.6781,-0.6782,-0.6782,-0.6782,-0.6778,-0.6782,-0.6782,-0.6782,-0.6782,-0.6782,0,-0.6797,-0.6796,-0.6795,-0.6794,-0.6794,-0.6792,-0.6791,-0.6791,-0.6791,-0.679,-0.679,-0.6789,-0.6789,-0.6788,-0.6787,-0.6788,-0.6787,-0.6788,-0.6788,-0.6788,-0.6783,-0.6783,-0.6788,-0.6788,-0.6788,-0.6788,-0.6788,-0.6788,-0.6799,-0.6799,-0.6798,-0.6798,-0.6797,-0.6797,-0.6796,-0.6796,-0.6795,-0.6795,-0.6795,-0.6794,-0.6793,-0.6793,-0.6793,-0.6792,-0.6792,-0.6793,-0.6793,-0.6789,-0.6788,-0.6787,-0.6787,-0.6793,-0.6793,-0.6798,-0.6798,-0.6798]},{"header":{"parameterUnit":"m.s-1","parameterCategory":1,"la1":30.2991,"la2":30.254,"lo1":-89.0895,"lo2":-89.0444,"dy":0.0017,"dx":0.0017,"nx":28,"ny":28,"refTime":"2024-04-14T03:00:00:Z","depth":0,"parameterNumber":3,"parameterNumberName":"V-component_of_WINDS"},"data":[0,0,0,0,0,0,0,0,0,0,0,0,0,0,0,0,0,0,0,0,0,0,0,0,0,0,0,0,0,0,0,0,0,0,0,0,0,0,0,0,0,0,0,0,0,0,0,0,0,0,0,0,0,0,0,0,0,0,0.8941,0.8942,0,0.8962,0.8962,0.8962,0.8944,0.8943,0.8942,0.8942,0.8962,0.8963,0.8964,0,0,0,0,0,0,0,0,0,0,0,0,0,0.8885,0.8886,0.8941,0.8942,0.8942,0.8962,0.8962,0.8962,0.8944,0.8943,0.8942,0.8941,0.8961,0.8963,0.8964,0,0,0,0,0,0,0,0,0,0,0,0,0,0.8908,0.8887,0.8941,0.8935,0.8935,0.8962,0.8962,0.8962,0.8944,0.8943,0.8942,0.8941,0.8961,0.8963,0.8964,0.8998,0,0,0.897,0.8971,0,0,0,0,0,0,0,0,0.8907,0.891,0.8936,0.8936,0.8935,0.8949,0.895,0.8974,0.8944,0.8941,0.8941,0.894,0.8958,0.896,0.8967,0.8999,0.9,0.897,0.8971,0.8972,0.8973,0,0,0,0,0,0,0,0.8905,0.8909,0.8949,0.8936,0.8936,0.8931,0.8933,0.8954,0.8955,0.8941,0.8939,0.8942,0.8958,0.8965,0.8967,0.9,0.897,0.8972,0.8973,0.8974,0.9061,0.9062,0,0,0,0,0,0,0.8904,0.8908,0.8949,0.895,0.8918,0.8933,0.8935,0.8946,0.8955,0.8956,0.8943,0.8941,0.8962,0.8965,0.8968,0.9007,0.8972,0.8974,0.8975,0.9059,0.9061,0.9062,0,0,0,0,0,0,0.8903,0.8908,0.8948,0.8929,0.8933,0.8935,0.8947,0.8947,0.8954,0.8957,0.8957,0.895,0.8961,0.8965,0.8991,0.9008,0.8975,0.8976,0.9058,0.906,0.9061,0.9087,0,0,0,0,0,0,0.8902,0.8908,0.8921,0.8929,0.8934,0.8971,0.8948,0.8948,0.8957,0.8955,0.8963,0.8964,0.8961,0.8988,0.8992,0.901,0.8978,0.9056,0.9059,0.9061,0.9085,0.909,0.9094,0,0,0,0,0,0.89,0.8928,0.8922,0.8927,0.8951,0.8972,0.8975,0.8972,0.8958,0.8971,0.8973,0.8963,0.9005,0.8991,0.8996,0.9014,0.9055,0.9058,0.9061,0.9083,0.9089,0.9094,0,0,0,0,0,0,0.8922,0.8929,0.8922,0.8954,0.8963,0.8969,0.8986,0.8978,0.8991,0.8988,0.8982,0.8984,0.9011,0.9015,0.8999,0.9046,0.9028,0.9032,0.9043,0.9049,0.9053,0.9052,0.8979,0,0,0,0,0,0.8931,0.8948,0.8952,0.898,0.8984,0.8984,0.8993,0.8989,0.8998,0.9002,0.9006,0.9014,0.9029,0.9039,0.9053,0.9085,0.9086,0.91,0.9104,0.9108,0.9111,0.9127,0.9133,0.9071,0.9071,0.9071,0,0,0.8949,0.8954,0.8965,0.8984,0.8991,0.9008,0.8988,0.9007,0.9019,0.9005,0.9029,0.9032,0.9041,0.907,0.9083,0.9074,0.9129,0.9111,0.9114,0.9116,0.9131,0.9137,0.9142,0.9073,0.9072,0.9072,0,0,0.899,0.8996,0.9019,0.9026,0.9036,0.9035,0.9041,0.9048,0.9049,0.9074,0.9063,0.9077,0.9103,0.911,0.9117,0.9159,0.915,0.9164,0.9187,0.9203,0.9208,0.9212,0.9227,0.9233,0.9167,0.9167,0.9167,0,0.9011,0.9037,0.9032,0.9052,0.906,0.9047,0.907,0.9077,0.909,0.9096,0.9086,0.9117,0.9123,0.9152,0.9163,0.9169,0.9174,0.9163,0.9208,0.9212,0.9216,0.923,0.9236,0.9169,0.9169,0.9168,0.9168,0,0.9062,0.908,0.9097,0.9111,0.9121,0.9142,0.914,0.915,0.9145,0.9146,0.917,0.9176,0.919,0.9197,0.9192,0.9226,0.922,0.9209,0.919,0.9224,0.9237,0.9242,0.9171,0.917,0.917,0.917,0,0,0.9119,0.9129,0.9135,0.9141,0.915,0.9163,0.9183,0.9197,0.9206,0.9216,0.9232,0.9254,0.9243,0.9251,0.9247,0.9261,0.9293,0.9248,0.9248,0.9256,0.933,0.9338,0.9344,0.9287,0.9288,0.9289,0.9329,0,0.9161,0.9196,0.9192,0.9225,0.9241,0.9229,0.9246,0.9253,0.9254,0.9267,0.9267,0.9283,0.9268,0.9272,0.9286,0.9287,0.9308,0.9284,0.9302,0.9303,0.93,0.9351,0.936,0.9397,0.9334,0.9335,0.9335,0,0.9214,0.9225,0.926,0.9266,0.9273,0.9288,0.93,0.9313,0.932,0.932,0.9328,0.9321,0.934,0.9321,0.9347,0.9331,0.9338,0.9339,0.9341,0.9342,0.9321,0.9354,0.9409,0.9415,0.9343,0.9343,0.9342,0,0.9252,0.9276,0.9299,0.9304,0.9312,0.9323,0.9326,0.9333,0.9341,0.9351,0.9356,0.9369,0.9376,0.9385,0.9381,0.9368,0.9408,0.9389,0.9408,0.9408,0.9417,0.9416,0.9474,0.9422,0.9421,0.9421,0.9421,0,0.9299,0.9321,0.9316,0.9331,0.9355,0.9349,0.9372,0.9374,0.938,0.9394,0.9384,0.9397,0.9392,0.9405,0.9402,0.9423,0.9427,0.9426,0.9425,0.9427,0.9427,0.9432,0.9429,0.9423,0.9423,0.9422,0.9422,0,0.9345,0.9343,0.9368,0.9373,0.9374,0.9391,0.9395,0.9408,0.9408,0.9426,0.943,0.9429,0.9443,0.944,0.9457,0.9455,0.9482,0.9478,0.9479,0.9478,0.9497,0.9495,0.956,0.9568,0.951,0.9511,0.9511,0,0.9375,0.9392,0.9398,0.9406,0.9411,0.9425,0.9433,0.9428,0.9437,0.9446,0.9458,0.9471,0.9482,0.9506,0.9506,0.9519,0.9514,0.9536,0.9516,0.9517,0.9514,0.9513,0.9515,0.954,0.9541,0.9541,0.9542,0,0.9429,0.9427,0.9439,0.9451,0.9461,0.947,0.9478,0.9485,0.948,0.9491,0.9506,0.9514,0.953,0.9544,0.9554,0.9557,0.9549,0.9548,0.9553,0.9555,0.9555,0.9555,0.949,0.9547,0.9546,0.9546,0.9545,0.9545,0.9468,0.9481,0.9487,0.9501,0.9506,0.9514,0.9526,0.9527,0.9539,0.9552,0.9548,0.9564,0.957,0.9584,0.9588,0.9601,0.9592,0.96,0.9601,0.9603,0.9605,0.9553,0.9603,0.9602,0.9602,0.9602,0.9602,0,0.952,0.9523,0.9536,0.9547,0.9558,0.9548,0.9556,0.9566,0.958,0.9587,0.9597,0.9613,0.9626,0.9627,0.9639,0.9649,0.9645,0.9652,0.9651,0.9652,0.9612,0.9607,0.9655,0.9655,0.9655,0.9655,0.9655,0.9655,0.9549,0.9571,0.9569,0.9594,0.9596,0.9613,0.9618,0.9624,0.9629,0.9648,0.9658,0.9659,0.9663,0.9675,0.9686,0.9686,0.969,0.9699,0.9697,0.966,0.9655,0.965,0.9645,0.97,0.97,0.9736,0.9736,0.9736]}]]